Time,TemperatureF,DewpointF,PressureIn,WindDirection,WindDirectionDegrees,WindSpeedMPH,WindSpeedGustMPH,Humidity,HourlyPrecipIn,Conditions,Clouds,dailyrainin,SoftwareType,DateUTC
2013-01-10 00:00:00,49.6,48.8,30.04,SW,225,0.0,0.0,97,0.00,,,1.75,Wunderground v.1.15,2013-01-10 06:00:00,
2013-01-10 00:09:00,49.8,49.0,30.05,SW,224,0.0,0.0,97,0.00,,,0.00,Wunderground v.1.15,2013-01-10 06:09:00,
2013-01-10 00:20:00,49.1,48.3,30.05,SW,225,0.0,0.0,97,0.00,,,0.00,Wunderground v.1.15,2013-01-10 06:20:00,
2013-01-10 00:29:00,49.0,48.5,30.05,SW,225,0.0,0.0,98,0.00,,,0.00,Wunderground v.1.15,2013-01-10 06:29:00,
2013-01-10 00:35:00,49.3,48.8,30.05,SW,225,0.0,0.0,98,0.00,,,0.00,Wunderground v.1.15,2013-01-10 06:35:00,
2013-01-10 00:44:00,49.1,48.6,30.05,SW,224,0.0,1.0,98,0.00,,,0.00,Wunderground v.1.15,2013-01-10 06:44:00,
2013-01-10 00:55:00,49.2,48.7,30.05,SW,224,0.0,0.0,98,0.00,,,0.00,Wunderground v.1.15,2013-01-10 06:55:00,
2013-01-10 01:04:00,49.3,48.8,30.05,SW,226,0.0,0.0,98,0.00,,,0.00,Wunderground v.1.15,2013-01-10 07:04:00,
2013-01-10 01:10:00,49.2,48.7,30.05,SW,226,0.0,0.0,98,0.00,,,0.00,Wunderground v.1.15,2013-01-10 07:10:00,
2013-01-10 01:19:00,50.2,49.9,30.06,West,260,0.0,1.0,99,0.00,,,0.00,Wunderground v.1.15,2013-01-10 07:19:00,
2013-01-10 01:25:00,50.7,50.4,30.07,SW,215,0.0,1.0,99,0.00,,,0.00,Wunderground v.1.15,2013-01-10 07:25:00,
2013-01-10 01:34:00,51.1,50.8,30.07,WSW,251,0.0,1.0,99,0.00,,,0.00,Wunderground v.1.15,2013-01-10 07:34:00,
2013-01-10 01:40:00,51.3,51.0,30.07,WNW,282,1.0,1.0,99,0.00,,,0.00,Wunderground v.1.15,2013-01-10 07:40:00,
2013-01-10 01:50:00,51.6,51.3,30.07,SSW,205,1.0,1.0,99,0.00,,,0.00,Wunderground v.1.15,2013-01-10 07:50:00,
2013-01-10 02:00:00,51.8,51.5,30.07,SW,221,2.0,2.0,99,0.00,,,0.00,Wunderground v.1.15,2013-01-10 08:00:00,
2013-01-10 02:09:00,51.9,51.6,30.07,West,279,1.0,2.0,99,0.00,,,0.00,Wunderground v.1.15,2013-01-10 08:09:00,
2013-01-10 02:15:00,51.8,51.5,30.07,WNW,288,1.0,3.0,99,0.00,,,0.00,Wunderground v.1.15,2013-01-10 08:15:00,
2013-01-10 02:24:00,51.8,51.3,30.08,West,269,1.0,2.0,98,0.00,,,0.00,Wunderground v.1.15,2013-01-10 08:24:00,
2013-01-10 02:35:00,51.6,51.1,30.07,WNW,300,2.0,2.0,98,0.00,,,0.00,Wunderground v.1.15,2013-01-10 08:35:00,
2013-01-10 02:44:00,51.4,50.9,30.07,WSW,257,2.0,2.0,98,0.00,,,0.00,Wunderground v.1.15,2013-01-10 08:44:00,
2013-01-10 02:50:00,51.3,50.8,30.08,West,274,2.0,2.0,98,0.00,,,0.00,Wunderground v.1.15,2013-01-10 08:50:00,
2013-01-10 02:59:00,51.3,50.8,30.08,SW,221,1.0,1.0,98,0.00,,,0.00,Wunderground v.1.15,2013-01-10 08:59:00,
2013-01-10 03:10:00,51.3,51.0,30.08,WNW,295,1.0,1.0,99,0.00,,,0.00,Wunderground v.1.15,2013-01-10 09:10:00,
2013-01-10 03:19:00,51.2,50.7,30.07,WNW,284,2.0,2.0,98,0.00,,,0.00,Wunderground v.1.15,2013-01-10 09:19:00,
2013-01-10 03:25:00,51.0,50.5,30.08,West,277,2.0,3.0,98,0.00,,,0.00,Wunderground v.1.15,2013-01-10 09:25:00,
2013-01-10 03:34:00,50.6,50.1,30.08,WNW,285,2.0,2.0,98,0.00,,,0.00,Wunderground v.1.15,2013-01-10 09:34:00,
2013-01-10 03:45:00,50.5,50.0,30.08,WNW,298,2.0,3.0,98,0.00,,,0.00,Wunderground v.1.15,2013-01-10 09:45:00,
2013-01-10 03:54:00,50.4,49.9,30.08,WNW,287,2.0,3.0,98,0.00,,,0.00,Wunderground v.1.15,2013-01-10 09:54:00,
2013-01-10 04:00:00,50.4,50.1,30.08,WNW,285,2.0,2.0,99,0.00,,,0.00,Wunderground v.1.15,2013-01-10 10:00:00,
2013-01-10 04:09:00,50.1,49.6,30.08,West,275,3.0,3.0,98,0.00,,,0.00,Wunderground v.1.15,2013-01-10 10:09:00,
2013-01-10 04:15:00,50.0,49.5,30.08,West,266,3.0,8.0,98,0.00,,,0.00,Wunderground v.1.15,2013-01-10 10:15:00,
2013-01-10 04:24:00,49.9,49.4,30.08,West,271,2.0,3.0,98,0.00,,,0.00,Wunderground v.1.15,2013-01-10 10:24:00,
2013-01-10 04:35:00,49.9,49.6,30.08,SW,229,2.0,3.0,99,0.00,,,0.00,Wunderground v.1.15,2013-01-10 10:35:00,
2013-01-10 04:44:00,49.5,49.0,30.07,SW,235,3.0,4.0,98,0.00,,,0.00,Wunderground v.1.15,2013-01-10 10:44:00,
2013-01-10 04:55:00,49.4,48.9,30.07,WSW,258,2.0,4.0,98,0.00,,,0.00,Wunderground v.1.15,2013-01-10 10:55:00,
2013-01-10 05:04:00,49.4,49.1,30.07,West,262,2.0,5.0,99,0.00,,,0.00,Wunderground v.1.15,2013-01-10 11:04:00,
2013-01-10 05:10:00,49.3,49.0,30.07,WNW,287,2.0,3.0,99,0.00,,,0.00,Wunderground v.1.15,2013-01-10 11:10:00,
2013-01-10 05:19:00,49.4,49.1,30.06,West,278,1.0,1.0,99,0.00,,,0.00,Wunderground v.1.15,2013-01-10 11:19:00,
2013-01-10 05:30:00,49.2,48.9,30.06,SW,225,2.0,2.0,99,0.00,,,0.00,Wunderground v.1.15,2013-01-10 11:30:00,
2013-01-10 05:39:00,49.0,48.5,30.06,West,264,2.0,2.0,98,0.00,,,0.00,Wunderground v.1.15,2013-01-10 11:39:00,
2013-01-10 05:45:00,48.9,48.4,30.06,WSW,249,1.0,6.0,98,0.00,,,0.00,Wunderground v.1.15,2013-01-10 11:45:00,
2013-01-10 05:54:00,48.6,48.1,30.06,SSE,152,1.0,1.0,98,0.00,,,0.00,Wunderground v.1.15,2013-01-10 11:54:00,
2013-01-10 06:00:00,48.5,48.0,30.06,West,266,0.0,1.0,98,0.00,,,0.00,Wunderground v.1.15,2013-01-10 12:00:00,
2013-01-10 06:09:00,48.4,47.9,30.06,West,264,1.0,1.0,98,0.00,,,0.00,Wunderground v.1.15,2013-01-10 12:09:00,
2013-01-10 06:20:00,48.1,47.6,30.06,WSW,253,0.0,0.0,98,0.00,,,0.00,Wunderground v.1.15,2013-01-10 12:20:00,
2013-01-10 06:29:00,47.6,47.1,30.06,WSW,248,0.0,0.0,98,0.00,,,0.00,Wunderground v.1.15,2013-01-10 12:29:00,
2013-01-10 06:35:00,47.3,46.8,30.06,WSW,255,0.0,0.0,98,0.00,,,0.00,Wunderground v.1.15,2013-01-10 12:35:00,
2013-01-10 06:44:00,46.8,46.3,30.06,WSW,255,0.0,0.0,98,0.00,,,0.00,Wunderground v.1.15,2013-01-10 12:44:00,
2013-01-10 06:55:00,46.4,45.9,30.06,WSW,240,0.0,1.0,98,0.00,,,0.00,Wunderground v.1.15,2013-01-10 12:55:00,
2013-01-10 07:04:00,46.1,45.6,30.06,WSW,252,0.0,1.0,98,0.00,,,0.00,Wunderground v.1.15,2013-01-10 13:04:00,
2013-01-10 07:10:00,45.9,45.4,30.06,WSW,250,0.0,1.0,98,0.00,,,0.00,Wunderground v.1.15,2013-01-10 13:10:00,
2013-01-10 07:19:00,45.5,45.0,30.07,WSW,250,0.0,0.0,98,0.00,,,0.00,Wunderground v.1.15,2013-01-10 13:19:00,
2013-01-10 07:25:00,45.3,44.8,30.07,WSW,250,0.0,0.0,98,0.00,,,0.00,Wunderground v.1.15,2013-01-10 13:25:00,
2013-01-10 07:34:00,45.0,44.5,30.07,WSW,250,0.0,0.0,98,0.00,,,0.00,Wunderground v.1.15,2013-01-10 13:34:00,
2013-01-10 07:45:00,44.9,44.4,30.08,NW,316,1.0,1.0,98,0.00,,,0.00,Wunderground v.1.15,2013-01-10 13:45:00,
2013-01-10 07:54:00,45.0,44.7,30.07,NW,304,1.0,2.0,99,0.00,,,0.00,Wunderground v.1.15,2013-01-10 13:54:00,
2013-01-10 08:05:00,45.2,44.9,30.08,West,277,3.0,3.0,99,0.00,,,0.00,Wunderground v.1.15,2013-01-10 14:05:00,
2013-01-10 08:14:00,45.5,45.0,30.08,WNW,284,3.0,3.0,98,0.00,,,0.00,Wunderground v.1.15,2013-01-10 14:14:00,
2013-01-10 08:20:00,45.8,45.0,30.09,WNW,295,2.0,2.0,97,0.00,,,0.00,Wunderground v.1.15,2013-01-10 14:20:00,
2013-01-10 08:29:00,46.4,45.3,30.08,WNW,292,2.0,2.0,96,0.00,,,0.00,Wunderground v.1.15,2013-01-10 14:29:00,
2013-01-10 08:40:00,47.0,45.4,30.08,WNW,292,3.0,3.0,94,0.00,,,0.00,Wunderground v.1.15,2013-01-10 14:40:00,
2013-01-10 08:49:00,47.8,45.6,30.08,WNW,301,3.0,3.0,92,0.00,,,0.00,Wunderground v.1.15,2013-01-10 14:49:00,
2013-01-10 08:55:00,48.3,45.8,30.08,NW,310,3.0,3.0,91,0.00,,,0.00,Wunderground v.1.15,2013-01-10 14:55:00,
2013-01-10 09:04:00,49.6,45.9,30.07,NW,314,3.0,4.0,87,0.00,,,0.00,Wunderground v.1.15,2013-01-10 15:04:00,
2013-01-10 09:15:00,51.0,46.0,30.07,NW,304,5.0,5.0,83,0.00,,,0.00,Wunderground v.1.15,2013-01-10 15:15:00,
2013-01-10 09:24:00,52.3,46.0,30.06,West,278,5.0,5.0,79,0.00,,,0.00,Wunderground v.1.15,2013-01-10 15:24:00,
2013-01-10 09:35:00,53.0,44.9,30.06,NW,308,7.0,10.0,74,0.00,,,0.00,Wunderground v.1.15,2013-01-10 15:35:00,
2013-01-10 09:44:00,53.3,45.6,30.06,WNW,297,6.0,11.0,75,0.00,,,0.00,Wunderground v.1.15,2013-01-10 15:44:00,
2013-01-10 09:50:00,53.7,45.6,30.07,WSW,257,6.0,6.0,74,0.00,,,0.00,Wunderground v.1.15,2013-01-10 15:50:00,
2013-01-10 09:59:00,54.7,46.2,30.07,NW,310,5.0,5.0,73,0.00,,,0.00,Wunderground v.1.15,2013-01-10 15:59:00,
2013-01-10 10:05:00,55.1,45.9,30.07,NW,308,6.0,6.0,71,0.00,,,0.00,Wunderground v.1.15,2013-01-10 16:05:00,
2013-01-10 10:14:00,55.8,46.2,30.07,West,280,7.0,7.0,70,0.00,,,0.00,Wunderground v.1.15,2013-01-10 16:14:00,
2013-01-10 10:25:00,56.4,46.0,30.07,NNW,327,7.0,7.0,68,0.00,,,0.00,Wunderground v.1.15,2013-01-10 16:25:00,
2013-01-10 10:34:00,56.7,45.9,30.07,SW,218,7.0,11.0,67,0.00,,,0.00,Wunderground v.1.15,2013-01-10 16:34:00,
2013-01-10 10:40:00,56.9,46.1,30.07,WNW,294,6.0,6.0,67,0.00,,,0.00,Wunderground v.1.15,2013-01-10 16:40:00,
2013-01-10 10:49:00,57.5,45.8,30.07,NW,311,7.0,7.0,65,0.00,,,0.00,Wunderground v.1.15,2013-01-10 16:49:00,
2013-01-10 10:55:00,57.8,45.7,30.07,NNW,339,8.0,8.0,64,0.00,,,0.00,Wunderground v.1.15,2013-01-10 16:55:00,
2013-01-10 11:04:00,58.3,46.2,30.07,NW,309,8.0,13.0,64,0.00,,,0.00,Wunderground v.1.15,2013-01-10 17:04:00,
2013-01-10 11:15:00,58.7,46.1,30.07,SSW,208,7.0,8.0,63,0.00,,,0.00,Wunderground v.1.15,2013-01-10 17:15:00,
2013-01-10 11:24:00,59.2,46.2,30.08,ENE,78,6.0,6.0,62,0.00,,,0.00,Wunderground v.1.15,2013-01-10 17:24:00,
2013-01-10 11:30:00,59.2,46.6,30.08,WSW,257,6.0,9.0,63,0.00,,,0.00,Wunderground v.1.15,2013-01-10 17:30:00,
2013-01-10 11:39:00,59.5,46.5,30.08,WNW,283,6.0,6.0,62,0.00,,,0.00,Wunderground v.1.15,2013-01-10 17:39:00,
2013-01-10 11:50:00,59.9,46.4,30.07,West,266,3.0,4.0,61,0.00,,,0.00,Wunderground v.1.15,2013-01-10 17:50:00,
2013-01-10 11:59:00,60.6,47.5,30.06,NW,304,4.0,6.0,62,0.00,,,0.00,Wunderground v.1.15,2013-01-10 17:59:00,
2013-01-10 12:05:00,60.7,45.8,30.05,WSW,249,5.0,6.0,58,0.00,,,0.00,Wunderground v.1.15,2013-01-10 18:05:00,
2013-01-10 12:14:00,61.2,45.8,30.05,WSW,254,4.0,4.0,57,0.00,,,0.00,Wunderground v.1.15,2013-01-10 18:14:00,
2013-01-10 12:20:00,61.7,46.8,30.05,WSW,256,4.0,7.0,58,0.00,,,0.00,Wunderground v.1.15,2013-01-10 18:20:00,
2013-01-10 12:29:00,61.9,46.5,30.05,NW,310,4.0,6.0,57,0.00,,,0.00,Wunderground v.1.15,2013-01-10 18:29:00,
2013-01-10 12:35:00,62.2,46.3,30.05,WNW,302,4.0,6.0,56,0.00,,,0.00,Wunderground v.1.15,2013-01-10 18:35:00,
2013-01-10 12:45:00,62.5,47.1,30.05,ENE,58,3.0,7.0,57,0.00,,,0.00,Wunderground v.1.15,2013-01-10 18:45:00,
2013-01-10 12:55:00,62.9,47.4,30.05,West,266,3.0,4.0,57,0.00,,,0.00,Wunderground v.1.15,2013-01-10 18:55:00,
2013-01-10 13:04:00,63.0,46.1,30.05,WNW,293,3.0,3.0,54,0.00,,,0.00,Wunderground v.1.15,2013-01-10 19:04:00,
2013-01-10 13:10:00,63.1,46.2,30.05,NW,309,3.0,4.0,54,0.00,,,0.00,Wunderground v.1.15,2013-01-10 19:10:00,
2013-01-10 13:19:00,63.4,46.0,30.05,WSW,248,3.0,3.0,53,0.00,,,0.00,Wunderground v.1.15,2013-01-10 19:19:00,
2013-01-10 13:30:00,63.5,46.6,30.04,WSW,255,3.0,6.0,54,0.00,,,0.00,Wunderground v.1.15,2013-01-10 19:30:00,
2013-01-10 13:39:00,63.8,46.8,30.04,NW,310,3.0,3.0,54,0.00,,,0.00,Wunderground v.1.15,2013-01-10 19:39:00,
2013-01-10 13:45:00,64.2,47.2,30.04,West,274,3.0,4.0,54,0.00,,,0.00,Wunderground v.1.15,2013-01-10 19:45:00,
2013-01-10 13:54:00,63.7,46.7,30.04,West,267,4.0,4.0,54,0.00,,,0.00,Wunderground v.1.15,2013-01-10 19:54:00,
2013-01-10 14:05:00,64.1,46.6,30.03,WSW,249,3.0,3.0,53,0.00,,,0.00,Wunderground v.1.15,2013-01-10 20:05:00,
2013-01-10 14:14:00,64.6,47.1,30.03,WNW,288,3.0,3.0,53,0.00,,,0.00,Wunderground v.1.15,2013-01-10 20:14:00,
2013-01-10 14:25:00,64.8,47.8,30.02,West,276,2.0,2.0,54,0.00,,,0.00,Wunderground v.1.15,2013-01-10 20:25:00,
2013-01-10 14:35:00,65.2,48.1,30.02,SSE,156,2.0,5.0,54,0.00,,,0.00,Wunderground v.1.15,2013-01-10 20:35:00,
2013-01-10 14:44:00,64.8,46.2,30.02,NW,321,3.0,3.0,51,0.00,,,0.00,Wunderground v.1.15,2013-01-10 20:44:00,
2013-01-10 14:50:00,65.1,47.0,30.02,SW,217,3.0,3.0,52,0.00,,,0.00,Wunderground v.1.15,2013-01-10 20:50:00,
2013-01-10 15:00:00,65.4,46.8,30.02,WNW,284,3.0,3.0,51,0.00,,,0.00,Wunderground v.1.15,2013-01-10 21:00:00,
2013-01-10 15:09:00,65.7,46.5,30.02,WSW,240,2.0,2.0,50,0.00,,,0.00,Wunderground v.1.15,2013-01-10 21:09:00,
2013-01-10 15:20:00,65.8,47.2,30.01,West,281,3.0,3.0,51,0.00,,,0.00,Wunderground v.1.15,2013-01-10 21:20:00,
2013-01-10 15:34:00,67.0,48.3,30.02,West,262,2.0,4.0,51,0.00,,,0.00,Wunderground v.1.15,2013-01-10 21:34:00,
2013-01-10 15:40:00,66.9,47.6,30.02,SW,222,2.0,3.0,50,0.00,,,0.00,Wunderground v.1.15,2013-01-10 21:40:00,
2013-01-10 15:49:00,67.1,47.3,30.02,West,270,2.0,2.0,49,0.00,,,0.00,Wunderground v.1.15,2013-01-10 21:49:00,
2013-01-10 15:55:00,67.0,47.7,30.02,West,260,3.0,3.0,50,0.00,,,0.00,Wunderground v.1.15,2013-01-10 21:55:00,
2013-01-10 16:04:00,67.5,47.7,30.02,SSW,200,1.0,2.0,49,0.00,,,0.00,Wunderground v.1.15,2013-01-10 22:04:00,
2013-01-10 16:10:00,67.6,48.3,30.02,WSW,248,1.0,1.0,50,0.00,,,0.00,Wunderground v.1.15,2013-01-10 22:10:00,
2013-01-10 16:19:00,67.7,47.3,30.02,WSW,255,1.0,3.0,48,0.00,,,0.00,Wunderground v.1.15,2013-01-10 22:19:00,
2013-01-10 16:30:00,68.1,47.7,30.02,South,189,1.0,1.0,48,0.00,,,0.00,Wunderground v.1.15,2013-01-10 22:30:00,
2013-01-10 16:39:00,68.9,48.4,30.02,West,267,1.0,1.0,48,0.00,,,0.00,Wunderground v.1.15,2013-01-10 22:39:00,
2013-01-10 16:45:00,69.3,48.2,30.02,West,259,1.0,1.0,47,0.00,,,0.00,Wunderground v.1.15,2013-01-10 22:45:00,
2013-01-10 16:54:00,68.4,47.9,30.02,SW,221,1.0,2.0,48,0.00,,,0.00,Wunderground v.1.15,2013-01-10 22:54:00,
2013-01-10 17:00:00,68.4,47.9,30.02,WSW,248,1.0,1.0,48,0.00,,,0.00,Wunderground v.1.15,2013-01-10 23:00:00,
2013-01-10 17:09:00,68.7,48.8,30.02,WSW,257,0.0,0.0,49,0.00,,,0.00,Wunderground v.1.15,2013-01-10 23:09:00,
2013-01-10 17:20:00,68.2,48.3,30.02,West,269,0.0,0.0,49,0.00,,,0.00,Wunderground v.1.15,2013-01-10 23:20:00,
2013-01-10 17:29:00,67.0,47.7,30.02,SW,229,0.0,0.0,50,0.00,,,0.00,Wunderground v.1.15,2013-01-10 23:29:00,
2013-01-10 17:35:00,65.8,47.7,30.02,SW,230,0.0,0.0,52,0.00,,,0.00,Wunderground v.1.15,2013-01-10 23:35:00,
2013-01-10 17:44:00,63.9,48.4,30.02,SW,231,0.0,0.0,57,0.00,,,0.00,Wunderground v.1.15,2013-01-10 23:44:00,
2013-01-10 17:55:00,61.0,47.9,30.02,SW,230,0.0,0.0,62,0.00,,,0.00,Wunderground v.1.15,2013-01-10 23:55:00,
2013-01-10 18:04:00,59.3,47.9,30.02,SW,231,0.0,0.0,66,0.00,,,0.00,Wunderground v.1.15,2013-01-11 00:04:00,
2013-01-10 18:15:00,57.8,47.7,30.02,SW,231,0.0,0.0,69,0.00,,,0.00,Wunderground v.1.15,2013-01-11 00:15:00,
2013-01-10 18:24:00,56.7,47.4,30.03,SW,231,0.0,0.0,71,0.00,,,0.00,Wunderground v.1.15,2013-01-11 00:24:00,
2013-01-10 18:30:00,56.1,46.8,30.03,SW,230,0.0,0.0,71,0.00,,,0.00,Wunderground v.1.15,2013-01-11 00:30:00,
2013-01-10 18:39:00,55.1,47.0,30.04,SW,231,0.0,0.0,74,0.00,,,0.00,Wunderground v.1.15,2013-01-11 00:39:00,
2013-01-10 18:45:00,54.7,46.9,30.04,SW,231,0.0,0.0,75,0.00,,,0.00,Wunderground v.1.15,2013-01-11 00:45:00,
2013-01-10 18:54:00,53.9,46.9,30.04,SW,230,0.0,0.0,77,0.00,,,0.00,Wunderground v.1.15,2013-01-11 00:54:00,
2013-01-10 19:05:00,53.4,46.7,30.04,SW,230,0.0,0.0,78,0.00,,,0.00,Wunderground v.1.15,2013-01-11 01:05:00,
2013-01-10 19:14:00,52.9,46.6,30.04,SW,231,0.0,0.0,79,0.00,,,0.00,Wunderground v.1.15,2013-01-11 01:14:00,
2013-01-10 19:20:00,52.7,46.4,30.04,SW,229,0.0,0.0,79,0.00,,,0.00,Wunderground v.1.15,2013-01-11 01:20:00,
2013-01-10 19:29:00,52.2,46.2,30.04,SW,229,0.0,0.0,80,0.00,,,0.00,Wunderground v.1.15,2013-01-11 01:29:00,
2013-01-10 19:40:00,51.6,46.0,30.04,SW,230,0.0,0.0,81,0.00,,,0.00,Wunderground v.1.15,2013-01-11 01:40:00,
2013-01-10 19:49:00,50.8,45.8,30.04,SW,231,0.0,0.0,83,0.00,,,0.00,Wunderground v.1.15,2013-01-11 01:49:00,
2013-01-10 20:00:00,50.2,45.9,30.05,SW,231,0.0,0.0,85,0.00,,,0.00,Wunderground v.1.15,2013-01-11 02:00:00,
2013-01-10 20:09:00,49.8,45.8,30.04,SW,230,0.0,0.0,86,0.00,,,0.00,Wunderground v.1.15,2013-01-11 02:09:00,
2013-01-10 20:15:00,49.7,46.0,30.04,SW,231,0.0,0.0,87,0.00,,,0.00,Wunderground v.1.15,2013-01-11 02:15:00,
2013-01-10 20:24:00,49.1,45.4,30.04,SW,231,0.0,0.0,87,0.00,,,0.00,Wunderground v.1.15,2013-01-11 02:24:00,
2013-01-10 20:30:00,48.8,45.4,30.05,SW,231,0.0,0.0,88,0.00,,,0.00,Wunderground v.1.15,2013-01-11 02:30:00,
2013-01-10 20:39:00,48.7,45.3,30.05,SW,231,0.0,0.0,88,0.00,,,0.00,Wunderground v.1.15,2013-01-11 02:39:00,
2013-01-10 20:50:00,48.3,45.2,30.05,SW,231,0.0,0.0,89,0.00,,,0.00,Wunderground v.1.15,2013-01-11 02:50:00,
2013-01-10 20:59:00,48.3,45.5,30.05,SW,231,0.0,0.0,90,0.00,,,0.00,Wunderground v.1.15,2013-01-11 02:59:00,
2013-01-10 21:05:00,48.2,45.1,30.05,SW,231,0.0,0.0,89,0.00,,,0.00,Wunderground v.1.15,2013-01-11 03:05:00,
2013-01-10 21:14:00,47.8,44.7,30.04,SW,231,0.0,0.0,89,0.00,,,0.00,Wunderground v.1.15,2013-01-11 03:14:00,
2013-01-10 21:25:00,47.6,44.8,30.04,SW,231,0.0,0.0,90,0.00,,,0.00,Wunderground v.1.15,2013-01-11 03:25:00,
2013-01-10 21:34:00,47.6,45.1,30.05,SW,231,0.0,0.0,91,0.00,,,0.00,Wunderground v.1.15,2013-01-11 03:34:00,
2013-01-10 21:40:00,47.8,45.3,30.05,SW,231,0.0,0.0,91,0.00,,,0.00,Wunderground v.1.15,2013-01-11 03:40:00,
2013-01-10 21:49:00,48.1,45.3,30.05,SW,231,0.0,0.0,90,0.00,,,0.00,Wunderground v.1.15,2013-01-11 03:49:00,
2013-01-10 21:55:00,48.0,45.2,30.05,SW,231,0.0,0.0,90,0.00,,,0.00,Wunderground v.1.15,2013-01-11 03:55:00,
2013-01-10 22:04:00,47.7,44.9,30.05,SW,231,0.0,0.0,90,0.00,,,0.00,Wunderground v.1.15,2013-01-11 04:04:00,
2013-01-10 22:15:00,48.0,45.2,30.05,SW,231,0.0,0.0,90,0.00,,,0.00,Wunderground v.1.15,2013-01-11 04:15:00,
2013-01-10 22:24:00,48.2,45.4,30.05,SW,231,0.0,0.0,90,0.00,,,0.00,Wunderground v.1.15,2013-01-11 04:24:00,
2013-01-10 22:30:00,48.0,45.2,30.05,SW,229,0.0,0.0,90,0.00,,,0.00,Wunderground v.1.15,2013-01-11 04:30:00,
2013-01-10 22:39:00,47.7,44.6,30.05,SW,229,0.0,0.0,89,0.00,,,0.00,Wunderground v.1.15,2013-01-11 04:39:00,
2013-01-10 22:44:00,47.5,44.7,30.05,SW,229,0.0,0.0,90,0.00,,,0.00,Wunderground v.1.15,2013-01-11 04:44:00,
2013-01-10 22:55:00,47.1,44.3,30.05,SW,229,0.0,0.0,90,0.00,,,0.00,Wunderground v.1.15,2013-01-11 04:55:00,
2013-01-10 23:04:00,46.1,43.3,30.05,SW,229,0.0,0.0,90,0.00,,,0.00,Wunderground v.1.15,2013-01-11 05:04:00,
2013-01-10 23:10:00,45.9,43.4,30.05,SW,229,0.0,0.0,91,0.00,,,0.00,Wunderground v.1.15,2013-01-11 05:10:00,
2013-01-10 23:15:00,45.6,43.1,30.05,SW,231,0.0,0.0,91,0.00,,,0.00,Wunderground v.1.15,2013-01-11 05:15:00,
2013-01-10 23:25:00,45.0,42.8,30.06,SW,231,0.0,0.0,92,0.00,,,0.00,Wunderground v.1.15,2013-01-11 05:25:00,
2013-01-10 23:29:00,45.1,43.2,30.06,SW,231,0.0,0.0,93,0.00,,,0.00,Wunderground v.1.15,2013-01-11 05:29:00,
2013-01-10 23:39:00,45.5,43.9,30.06,SW,231,0.0,0.0,94,0.00,,,0.00,Wunderground v.1.15,2013-01-11 05:39:00,
2013-01-10 23:45:00,45.8,44.2,30.06,SW,231,0.0,0.0,94,0.00,,,0.00,Wunderground v.1.15,2013-01-11 05:45:00,
2013-01-10 23:55:00,46.0,44.4,30.06,SW,229,0.0,0.0,94,0.00,,,0.00,Wunderground v.1.15,2013-01-11 05:55:00,